Theta_e
312 312 312 312 312 313 313 313 312 312 313 312 312 312 313 314 313 313 313 314 314 313 313 313 313 313 313 313 312 312 311 302 299 297 296 299 308 316 319 321 322 323 321 298 299 297 293 293 295 296 293 293 296 295 296 299 297 296 291 289 289 290 291 292 294 294 295 296 297 297 300 301 300 303 304 307 305 305 310 316 323 328 328 329 330 336 336 337
311 312 312 312 312 312 312 312 312 312 312 312 312 313 312 313 313 313 313 312 312 313 313 313 313 313 313 312 312 312 307 300 297 296 296 309 315 316 319 319 321 322 313 297 296 295 293 293 293 294 292 294 295 295 298 294 298 294 288 288 289 291 292 296 297 296 296 296 296 300 300 301 302 304 304 303 303 303 303 319 324 323 326 330 333 334 335 335
311 311 311 311 311 312 312 312 312 313 313 312 312 312 313 313 312 313 313 313 313 313 313 313 313 312 312 312 312 312 302 297 295 296 304 320 318 320 320 323 320 317 301 300 297 297 296 295 294 294 292 293 291 293 295 293 297 293 291 289 291 293 293 295 296 296 298 296 297 298 298 299 302 303 305 303 301 303 302 315 321 321 323 326 331 333 334 334
311 311 312 311 312 312 312 312 311 311 312 312 312 312 313 313 313 312 312 313 313 313 313 313 313 312 312 312 312 307 298 295 292 300 304 320 322 322 322 320 322 310 301 299 299 298 297 295 292 294 291 290 289 293 292 293 292 289 291 290 290 291 292 293 294 295 296 297 298 298 299 298 299 301 303 301 301 303 306 318 322 321 323 325 330 333 333 332
311 311 311 311 311 311 311 311 312 312 312 311 312 312 312 313 312 312 313 312 312 313 312 312 312 312 312 312 311 302 295 284 297 304 308 321 324 323 322 321 323 301 301 299 296 294 292 291 292 291 291 288 289 291 290 292 294 292 289 292 292 292 292 293 293 295 294 296 294 295 296 299 302 301 301 302 300 300 305 317 325 326 326 327 329 332 333 332
310 310 311 311 311 311 311 311 311 311 311 312 312 312 312 312 313 312 312 312 312 312 312 312 312 311 312 311 305 299 290 281 296 297 321 323 323 323 323 322 320 302 298 295 294 292 293 290 289 287 286 288 289 288 288 293 296 289 291 292 292 292 292 292 297 296 294 293 293 292 296 296 298 299 301 301 301 303 306 322 324 327 328 329 332 332 331 331
310 310 310 310 310 311 311 311 311 311 311 311 311 312 312 313 312 312 312 312 312 312 312 311 312 311 311 309 301 294 288 291 295 301 318 325 324 322 321 319 318 300 297 295 293 292 289 288 288 287 287 286 285 288 289 290 292 291 288 291 293 295 294 295 296 294 293 293 293 295 296 294 294 293 300 299 302 304 305 322 326 328 330 331 330 331 331 331
309 309 310 310 310 310 310 310 311 311 311 311 312 312 312 312 312 312 312 312 312 312 311 311 311 311 310 300 294 289 289 289 295 298 323 323 313 316 314 304 303 298 296 294 292 291 290 288 288 289 286 286 286 288 289 289 290 289 288 291 292 293 295 294 294 294 295 294 294 294 294 294 295 295 296 297 301 302 303 304 321 329 329 330 330 330 331 331
309 309 309 309 310 310 310 310 310 310 311 311 311 311 312 311 311 312 312 312 311 312 311 311 310 310 309 297 291 286 285 294 301 309 305 304 304 305 303 301 300 297 296 293 293 292 291 288 288 289 285 286 288 288 288 288 284 289 289 290 291 291 293 293 293 293 294 296 296 295 295 296 297 297 295 298 300 302 302 303 321 327 327 328 329 331 331 331
309 309 309 309 309 309 310 310 310 310 311 311 311 311 311 311 311 311 312 312 312 311 312 311 310 310 301 295 288 284 292 302 303 301 301 301 300 300 299 304 299 297 296 294 293 292 292 290 290 291 290 288 289 287 287 288 285 290 289 290 290 290 291 293 292 293 293 294 295 293 294 294 296 296 293 300 302 302 302 302 317 326 325 327 329 330 331 331
309 309 309 309 309 309 309 309 310 310 310 311 311 311 311 311 311 311 312 312 312 312 311 311 310 307 298 295 287 285 295 301 302 301 301 300 300 299 298 299 300 297 295 294 294 295 294 292 291 292 291 287 288 287 287 288 290 289 289 289 289 290 291 292 291 291 294 294 294 293 292 294 295 295 294 299 304 306 304 304 314 323 325 326 327 329 330 331
309 309 309 309 309 309 309 309 309 310 310 310 310 311 311 311 311 312 312 312 312 312 312 310 310 303 299 295 290 291 298 300 301 301 302 301 299 299 299 299 300 299 296 294 294 293 292 293 292 291 284 291 284 287 287 290 289 289 289 286 287 288 289 290 290 292 293 293 296 294 294 293 294 293 298 299 303 303 302 302 306 320 324 325 326 328 328 329
309 309 309 309 309 308 309 309 309 310 310 310 310 311 311 311 311 312 312 312 312 311 311 310 309 305 298 290 293 300 301 302 301 302 304 302 300 301 301 300 299 298 298 295 294 294 293 292 291 290 289 289 287 284 288 291 289 290 288 287 286 286 285 289 291 292 292 293 294 295 285 288 292 296 298 301 302 302 301 300 303 315 323 325 326 326 327 329
309 309 309 309 308 308 308 309 309 309 310 310 311 311 311 311 312 312 312 311 310 310 310 311 303 299 293 289 296 300 302 302 304 306 304 301 299 299 299 300 300 298 297 296 296 296 295 292 293 292 292 288 286 290 289 288 289 284 286 288 281 280 280 288 291 290 290 293 293 295 285 288 292 295 298 301 302 301 298 299 299 311 321 324 325 326 326 328
309 309 309 309 308 308 308 309 309 310 310 310 311 310 310 310 312 312 313 311 311 311 311 307 299 293 288 292 299 302 314 310 304 301 304 300 298 298 297 298 299 297 296 296 296 297 295 293 292 289 287 291 290 287 282 282 283 284 281 278 279 280 281 287 290 290 288 291 293 292 285 288 292 295 298 300 299 299 297 298 299 311 317 323 324 325 326 327
309 309 309 308 308 308 308 308 309 309 310 310 310 310 310 311 312 312 312 311 312 312 307 299 298 293 289 286 295 310 302 298 298 301 302 302 299 298 298 297 297 295 294 296 297 298 295 294 290 286 290 289 286 281 279 279 278 280 280 278 277 279 280 283 287 291 291 291 291 292 285 289 290 295 297 298 299 297 296 297 298 305 316 319 323 325 325 326
308 309 309 308 308 308 308 308 308 309 309 309 310 309 310 310 312 313 312 311 309 306 300 296 298 296 287 297 303 296 295 298 302 301 302 303 301 299 299 292 292 291 290 291 294 293 292 291 290 289 287 283 281 280 277 274 275 276 280 277 280 279 280 279 285 289 290 290 287 289 288 289 291 291 293 295 297 295 295 296 298 300 315 318 321 324 324 325
308 308 308 308 308 308 308 308 309 309 309 309 308 307 306 309 312 309 307 307 306 304 302 301 297 292 290 294 290 292 298 298 300 302 301 303 302 300 298 295 292 290 288 288 290 289 290 287 288 281 282 283 282 279 276 274 275 276 276 277 277 280 282 282 282 284 289 289 287 288 287 288 290 291 293 295 297 295 295 296 297 297 309 318 320 322 324 325
308 308 308 308 308 308 308 308 309 309 309 308 307 306 307 309 300 301 299 300 293 288 285 287 289 283 283 290 295 297 297 301 302 300 297 297 301 300 298 295 292 291 286 285 286 287 285 286 284 282 279 279 280 282 280 279 279 279 278 278 279 278 279 280 284 288 289 287 287 287 286 288 289 291 292 293 295 295 295 296 296 298 304 317 320 321 323 324
308 307 308 308 308 308 308 308 308 309 309 305 301 299 297 293 288 288 293 295 290 292 292 292 292 293 293 293 294 299 303 301 296 295 297 297 300 295 295 292 289 288 286 283 283 284 286 280 278 279 279 281 282 282 283 283 282 282 281 279 279 279 281 283 285 287 289 286 285 286 287 288 289 290 291 292 293 293 294 294 295 297 301 314 319 321 322 323
308 308 308 308 308 308 308 308 308 308 308 301 298 294 289 289 284 284 291 292 293 293 293 293 294 293 293 295 297 297 294 294 296 295 297 304 294 294 289 290 285 284 282 283 284 287 286 279 279 280 281 282 283 283 283 282 282 281 280 279 279 279 279 283 284 287 288 285 283 286 286 286 287 289 291 292 292 292 293 293 294 295 298 310 318 320 321 324
307 308 308 308 308 308 308 308 308 308 307 297 298 294 295 296 297 298 293 287 293 294 293 294 295 293 296 296 298 299 296 291 293 294 297 299 293 290 287 287 283 282 283 285 283 280 280 279 282 281 282 282 283 283 282 282 281 281 280 279 278 280 282 284 284 286 288 286 283 285 283 284 286 288 290 291 291 293 294 294 295 295 296 304 316 319 321 323
307 307 308 308 308 309 308 308 307 306 296 296 295 296 297 302 302 301 298 290 288 293 293 292 292 291 292 296 296 298 291 290 289 295 295 296 290 290 287 285 283 283 283 283 281 279 278 281 284 285 283 282 281 281 281 281 281 279 279 277 277 280 279 276 282 285 285 285 281 283 282 284 287 288 289 290 292 293 295 295 295 296 296 299 311 318 320 322
307 307 308 308 308 308 308 307 305 298 295 296 297 299 303 303 301 299 293 285 285 291 292 293 294 293 292 293 297 296 292 291 291 292 298 295 290 290 289 285 284 283 281 281 281 281 281 284 284 283 283 283 281 281 280 279 278 280 280 279 279 279 280 280 281 284 285 286 286 285 282 283 285 284 286 289 292 293 294 295 295 296 298 300 306 318 321 322
307 307 308 308 308 308 307 306 293 295 297 296 296 301 303 304 301 299 291 284 285 286 295 294 296 295 295 301 299 294 293 292 293 295 298 296 294 289 287 290 286 282 283 283 282 280 281 286 287 285 282 281 280 279 280 280 277 278 280 281 281 282 281 281 282 281 279 279 284 282 274 276 282 283 285 287 289 290 293 293 293 294 295 297 301 311 320 323
307 307 307 308 308 307 307 296 292 297 297 296 301 303 304 303 302 298 287 278 279 285 292 286 297 290 299 292 296 295 294 290 292 295 298 301 304 295 293 287 288 282 284 284 283 283 283 286 286 284 284 282 280 280 280 281 278 276 278 282 283 282 282 281 281 280 274 273 282 284 276 273 278 281 284 286 287 289 291 291 292 294 295 296 299 307 318 322
307 307 307 307 307 307 297 290 297 298 293 296 301 303 303 304 301 297 287 272 272 286 286 292 291 290 296 294 297 297 279 282 297 298 297 301 296 300 289 287 289 289 289 289 283 280 284 283 283 284 283 282 280 279 281 282 278 277 282 282 283 282 281 281 281 280 277 282 284 283 280 275 276 278 284 286 285 286 288 289 291 292 294 296 299 303 313 321
307 307 307 307 306 306 300 299 297 294 297 301 303 303 303 302 298 292 279 267 271 291 288 290 292 297 297 297 298 291 291 294 287 293 299 299 298 294 290 286 286 286 290 285 276 283 283 281 282 283 283 281 280 282 281 283 280 279 283 283 281 282 282 282 281 279 279 278 275 280 282 276 276 280 284 286 284 286 288 289 290 291 292 294 297 301 307 319
306 307 306 306 306 306 302 299 296 295 298 301 302 301 304 297 292 283 272 268 285 287 300 292 301 296 295 296 293 293 292 294 286 292 297 299 300 295 286 290 289 288 289 287 281 284 287 286 285 285 282 280 281 280 282 282 278 281 284 283 283 282 282 282 279 279 279 276 272 277 281 274 276 279 281 283 284 285 286 289 290 292 293 293 295 299 305 313
306 306 306 306 304 298 297 300 296 299 300 302 301 301 300 293 285 277 271 268 288 282 292 294 292 289 292 290 289 290 288 290 292 293 294 292 294 296 294 298 290 287 285 288 286 287 288 293 294 289 284 285 286 285 283 282 283 284 284 282 281 280 279 280 280 278 276 269 274 279 281 278 273 278 280 281 282 285 287 289 291 292 293 294 294 297 303 311
306 306 306 306 299 297 297 293 296 299 300 301 301 295 293 282 276 271 267 277 288 287 291 287 288 292 289 286 284 287 287 288 289 290 286 291 288 289 290 285 290 283 280 281 283 285 286 287 287 287 292 288 287 285 285 285 284 284 281 280 278 277 278 277 276 277 270 268 276 280 280 280 272 276 281 285 286 287 288 288 290 291 292 293 293 296 301 309
306 306 306 304 303 301 294 297 300 302 301 301 298 288 284 277 276 273 271 289 277 282 283 284 289 287 289 288 284 283 286 286 288 288 285 285 285 282 282 278 279 276 275 275 277 280 280 283 287 286 294 288 284 282 283 284 283 282 280 279 274 270 273 265 274 266 268 270 275 279 280 276 276 280 284 286 287 288 289 290 291 292 293 293 292 295 300 307
305 305 306 304 305 297 299 300 302 301 301 300 290 283 276 269 268 274 279 279 274 284 285 289 287 288 287 284 283 285 286 283 286 287 287 286 283 282 285 283 281 281 275 277 275 275 277 281 284 285 286 289 287 281 279 279 279 279 277 274 273 268 265 263 267 270 272 275 279 279 281 276 280 282 286 287 290 291 292 292 292 293 293 293 293 294 298 305
304 304 298 301 303 302 302 304 303 302 299 296 288 283 278 274 273 291 281 278 281 287 287 285 287 287 285 280 283 286 282 284 285 285 286 281 279 279 279 282 285 281 281 278 274 274 269 272 277 282 278 285 286 285 284 280 277 280 280 279 275 273 270 263 270 265 268 272 276 281 276 272 276 278 287 290 291 292 293 293 293 294 294 294 294 293 295 300
304 300 297 297 299 303 304 304 301 302 297 291 284 275 273 270 275 275 274 275 282 285 286 287 284 281 282 281 283 287 286 280 284 286 282 281 279 278 279 278 284 283 280 274 276 276 276 276 280 283 284 285 283 286 285 283 282 281 280 281 275 275 278 273 272 273 273 274 272 276 273 276 281 286 290 292 292 291 292 292 293 292 293 293 293 293 294 297
300 297 298 296 301 302 301 303 300 296 295 286 280 277 273 277 276 276 279 285 287 283 285 287 281 276 274 278 282 286 289 284 284 283 280 282 284 282 283 283 283 286 281 275 276 276 278 276 282 283 285 284 285 286 285 285 274 278 280 277 279 281 280 273 271 276 272 270 270 275 277 280 285 287 289 290 290 289 290 290 290 291 292 293 293 293 294 296
296 298 297 299 301 303 304 304 301 296 290 284 280 276 280 283 284 282 291 287 287 287 277 276 276 277 275 277 280 282 286 287 283 281 279 282 282 284 284 286 288 285 286 282 277 282 277 279 284 283 283 285 286 286 286 285 283 278 275 279 285 286 284 276 269 268 270 268 269 276 275 276 278 275 287 288 287 288 289 289 289 290 292 292 294 295 296 297
296 296 301 301 302 303 303 300 298 292 285 283 279 288 282 284 289 288 289 288 286 282 278 274 276 282 276 278 279 283 286 283 280 284 280 281 280 287 286 286 289 289 289 288 281 281 283 276 281 284 284 285 286 285 283 285 286 282 279 285 279 270 274 275 271 266 266 266 266 273 276 278 278 280 283 285 285 286 289 289 290 293 296 297 297 298 300 299
295 293 293 299 303 304 301 299 297 290 282 281 275 281 286 286 288 288 290 290 287 282 279 280 279 280 280 277 280 285 285 281 286 283 280 281 278 286 286 287 286 289 290 289 284 282 284 277 280 284 283 285 284 283 275 279 283 286 286 283 284 280 277 274 273 275 277 267 265 271 273 274 282 282 283 288 290 291 292 291 293 294 295 297 299 300 301 301
291 291 290 300 303 303 301 300 291 286 281 279 280 277 284 285 289 291 291 290 284 283 278 280 283 279 280 282 284 281 284 285 284 284 283 285 282 289 287 289 286 288 289 290 286 289 280 283 274 282 285 285 279 280 278 277 277 278 278 276 281 281 282 280 279 277 274 268 267 267 267 275 281 285 286 290 290 292 293 293 294 296 297 299 300 301 302 302
291 288 289 300 303 303 301 292 287 283 280 282 283 282 284 286 288 289 289 292 288 291 286 283 280 280 280 281 283 287 283 283 284 282 284 283 283 280 291 288 289 287 289 288 286 287 282 282 276 281 280 280 281 283 282 279 279 278 278 277 279 278 276 273 271 281 279 276 272 268 269 277 283 290 292 292 292 292 293 294 295 296 298 298 300 300 301 302
288 285 290 300 302 301 294 285 283 284 282 281 282 285 285 294 287 286 288 288 288 284 288 288 286 284 283 283 284 283 284 283 283 282 283 281 284 285 291 288 289 289 287 282 284 290 287 284 280 277 280 281 284 286 285 284 284 283 282 279 279 279 278 275 270 273 278 279 280 277 272 275 287 293 295 294 293 293 293 294 295 296 297 298 299 300 301 302
287 287 296 299 302 299 285 277 284 283 279 282 287 287 288 287 286 287 286 286 285 287 284 284 285 284 283 285 285 283 286 284 286 281 282 283 286 289 291 286 290 290 292 287 289 290 292 281 279 280 284 286 287 288 287 286 285 282 282 283 282 279 280 278 277 276 276 277 275 274 272 275 286 295 295 294 294 294 293 294 295 296 297 298 299 299 300 302
289 288 291 298 300 295 284 278 280 280 283 286 286 285 287 287 286 286 284 285 285 283 284 283 284 287 285 287 285 282 287 280 287 286 283 286 285 291 291 289 292 290 289 288 285 290 281 283 280 277 277 278 278 280 281 283 284 280 278 281 283 283 282 281 283 283 276 278 279 274 271 272 285 292 294 294 294 294 294 294 295 296 297 298 299 300 300 302
289 290 290 294 296 292 284 281 280 275 280 281 281 282 284 285 287 287 286 285 287 286 282 281 286 284 284 285 283 285 286 285 283 288 288 287 287 292 292 292 293 290 293 294 295 292 284 283 280 275 273 270 268 264 270 274 278 279 280 279 283 283 281 279 274 277 273 276 279 273 273 281 286 290 291 292 295 294 293 293 295 296 297 298 299 300 301 304
286 280 285 285 288 289 289 288 285 283 279 279 277 281 283 282 285 288 288 286 287 288 285 284 287 286 282 283 282 282 280 286 285 284 285 284 288 290 293 292 292 291 296 299 296 292 284 284 283 282 279 277 279 280 281 283 279 278 277 280 281 282 284 282 278 274 274 276 276 277 279 281 284 287 289 291 293 291 291 293 294 295 296 298 299 300 303 305
285 281 280 281 284 285 285 284 284 282 279 283 278 282 280 282 284 285 287 282 287 286 285 284 283 281 281 283 281 282 284 283 287 286 286 286 288 290 293 291 291 293 299 299 297 291 285 282 283 283 283 283 284 284 286 286 282 282 280 280 280 280 281 280 277 276 280 278 274 280 282 281 284 287 289 291 291 291 291 292 294 294 297 299 299 301 305 306
281 283 284 286 282 279 281 280 285 284 284 284 280 283 281 281 282 280 285 286 287 287 282 282 280 282 282 281 283 278 281 282 283 279 286 287 286 288 288 291 290 295 299 294 294 290 284 281 283 283 283 285 285 285 285 285 284 283 283 282 281 280 279 279 279 281 282 277 276 281 282 282 285 288 290 291 291 291 291 293 294 296 298 298 300 302 303 305
285 285 286 289 282 282 281 284 286 284 282 283 283 283 281 281 280 282 282 283 285 283 285 277 281 283 284 285 282 280 281 278 278 283 283 284 284 285 284 287 290 296 296 292 291 293 286 282 285 285 283 284 284 285 285 284 283 284 284 284 284 283 280 281 282 282 283 282 284 285 284 284 286 288 290 293 294 293 293 295 296 297 298 298 300 301 302 304
286 286 284 288 288 285 284 283 283 282 279 286 279 281 282 281 281 283 285 282 278 281 285 280 282 284 284 284 283 280 283 283 282 280 285 284 283 285 285 287 286 292 295 291 291 293 287 283 287 286 283 284 286 287 286 284 284 283 286 285 285 285 283 282 281 282 283 283 285 285 284 284 290 292 291 293 294 293 295 295 296 297 296 298 299 300 301 304
293 293 293 287 283 283 285 283 281 281 276 279 279 282 283 283 282 285 284 286 284 281 283 282 285 284 285 283 283 283 286 285 285 285 287 286 281 287 286 287 292 287 289 289 291 290 289 284 289 286 281 282 285 286 286 286 286 285 284 283 282 281 280 280 280 282 282 282 283 283 282 284 289 292 291 292 293 294 294 296 297 297 297 297 297 299 301 304
294 295 295 289 283 287 281 281 281 278 275 280 284 283 283 283 285 285 281 284 285 286 286 285 285 284 282 282 282 285 288 288 288 289 289 290 290 290 290 289 289 287 286 288 292 288 287 285 283 282 280 280 285 286 285 284 282 279 280 282 284 282 282 282 285 286 286 286 282 280 283 288 290 293 291 293 293 293 295 296 296 297 297 297 297 299 301 304
Wind_Speed
17 17 18 18 18 19 19 19 19 19 19 19 19 20 19 19 18 18 19 19 19 19 20 20 20 20 21 22 23 22 21 9 14 10 7 8 5 4 2 6 5 6 6 3 7 9 5 6 7 10 2 2 0 1 1 0 1 2 4 6 11 8 9 5 8 7 4 7 7 5 7 8 10 5 3 3 4 6 4 8 1 2 5 2 2 10 15 16
18 18 18 18 18 18 18 19 19 20 20 19 19 19 19 20 19 18 19 19 19 19 20 19 20 20 21 20 22 21 15 8 11 9 12 7 7 4 6 2 4 6 4 3 5 4 4 7 5 7 2 1 2 1 0 2 1 6 2 4 15 6 4 7 5 5 4 4 5 10 9 10 13 9 2 6 2 4 6 2 2 1 4 7 7 11 15 17
18 18 18 18 19 18 18 19 19 20 20 20 20 20 19 19 19 20 19 19 19 18 19 19 20 20 21 20 20 18 10 8 3 2 3 1 3 6 5 2 3 6 2 0 0 1 1 2 3 2 2 1 2 2 0 2 2 3 3 9 10 0 1 1 1 4 3 4 5 7 6 7 8 6 1 7 6 6 10 3 2 3 2 3 6 9 12 13
19 19 19 19 19 19 20 20 20 20 20 19 19 19 19 19 19 18 19 19 18 19 18 19 19 20 20 20 19 10 4 3 0 0 2 4 2 3 2 2 3 3 2 2 1 0 1 0 1 1 1 1 2 1 1 4 2 2 3 8 2 2 1 2 5 5 5 3 2 5 5 5 5 4 4 4 8 10 10 9 9 9 9 8 8 8 10 13
19 19 19 20 20 20 20 20 19 20 20 21 20 19 19 19 19 18 17 18 18 17 18 18 19 19 21 20 18 4 1 1 0 2 5 5 3 4 6 6 4 3 2 0 3 3 4 4 1 2 2 1 1 1 2 1 1 1 5 1 2 1 1 4 4 4 5 4 4 6 4 7 1 1 5 8 11 11 9 6 12 13 13 12 11 12 10 12
20 20 20 21 20 21 21 21 21 21 20 20 20 20 20 19 18 19 18 17 17 17 16 16 18 18 19 18 12 1 0 2 1 2 6 4 6 7 7 8 8 4 3 5 3 2 8 5 4 2 2 1 1 3 2 1 0 6 1 2 0 1 1 4 6 5 4 4 5 4 4 9 4 5 6 10 14 8 5 9 12 14 15 17 13 12 12 13
20 20 20 21 21 21 21 21 21 22 22 21 21 20 20 19 19 18 18 17 16 16 16 16 16 17 18 14 6 2 3 5 2 5 10 5 7 8 8 7 6 6 5 6 6 5 3 3 4 1 1 1 2 1 4 2 2 1 4 3 7 2 3 5 6 6 3 5 5 3 6 5 6 8 2 5 9 8 5 9 13 14 16 14 13 14 16 16
20 20 20 21 21 21 21 21 22 22 22 21 21 21 21 20 19 19 19 18 16 15 15 14 14 15 15 5 5 4 1 4 5 6 7 8 7 6 4 4 4 3 5 3 3 4 3 5 3 0 2 1 1 1 2 5 1 3 3 2 2 3 2 3 3 7 7 4 3 4 5 7 5 5 7 14 14 7 7 4 4 9 13 17 17 16 17 15
20 21 20 20 21 21 21 21 21 22 21 21 20 20 21 21 21 21 20 19 17 16 13 12 12 12 8 2 2 4 1 4 3 6 9 8 7 5 6 2 4 4 1 2 1 3 3 1 3 3 2 3 1 5 4 1 4 4 2 5 2 3 3 5 4 2 6 6 2 8 10 6 6 9 10 17 17 13 6 3 4 7 9 15 21 24 19 17
20 21 20 21 21 21 21 22 22 22 22 22 22 22 21 21 21 21 22 21 18 15 13 10 10 7 4 4 2 2 3 2 3 7 8 8 8 9 7 1 1 1 2 0 1 3 2 1 1 2 1 2 1 2 2 1 3 1 3 4 5 6 4 3 3 2 3 3 5 4 9 7 4 2 11 12 7 8 8 4 1 10 10 12 12 15 20 21
20 21 21 21 21 21 22 22 22 22 23 23 24 23 22 21 21 22 21 20 16 14 10 10 7 4 2 2 2 3 4 2 2 5 6 6 7 6 5 3 1 1 0 3 1 1 1 1 2 1 1 2 2 4 1 2 2 5 4 5 4 4 3 4 3 5 1 4 1 1 4 4 7 4 18 16 1 1 3 5 2 7 11 11 10 12 14 17
21 21 22 22 22 21 22 23 23 24 24 24 24 23 22 23 23 23 20 17 13 10 8 5 4 2 1 3 3 7 2 2 6 5 5 4 4 4 5 4 1 1 1 3 4 3 3 2 1 1 1 2 3 2 2 2 4 4 4 9 6 4 5 3 4 3 3 4 2 1 9 13 10 14 25 8 3 5 6 6 4 6 10 12 12 10 8 10
21 22 22 23 22 23 23 23 24 24 24 24 23 23 22 23 22 21 18 12 7 5 7 6 2 2 1 6 7 8 5 5 6 9 8 1 3 4 5 5 3 3 3 3 4 3 3 4 3 1 2 1 1 1 2 3 3 4 2 1 9 7 8 7 5 5 6 3 3 4 9 11 16 23 22 5 4 5 6 8 4 5 7 10 13 13 12 8
22 23 23 23 23 23 23 24 25 25 25 24 24 23 22 21 20 17 12 5 1 4 5 4 5 3 1 5 6 4 5 1 4 6 4 2 2 6 4 1 2 3 2 4 6 4 2 2 3 2 1 1 2 3 6 3 3 3 4 0 4 7 5 4 1 2 5 3 5 5 10 13 11 18 11 4 3 3 9 10 5 5 7 9 10 11 12 13
22 22 22 22 24 24 24 25 24 25 24 24 25 24 21 20 16 10 3 6 7 6 6 7 4 4 2 7 6 8 10 0 3 3 2 2 2 5 4 3 3 2 4 4 2 1 3 5 3 1 1 1 1 2 4 3 2 1 5 4 2 4 4 6 5 3 3 2 6 7 9 17 13 16 9 3 6 2 7 11 10 6 7 9 11 12 13 13
23 23 23 23 24 25 25 25 25 25 24 25 24 25 20 16 10 5 7 7 8 8 5 3 0 2 1 4 1 4 2 1 5 5 2 0 1 3 2 1 0 1 2 3 2 0 1 3 1 5 1 1 1 1 4 6 5 3 4 6 3 2 5 8 3 1 4 2 3 9 8 10 6 11 8 8 11 13 12 11 10 6 9 10 10 12 13 13
23 23 23 24 24 25 25 25 25 24 25 25 25 21 19 10 6 8 7 7 4 3 2 2 2 1 2 1 2 3 3 4 4 3 5 3 3 3 2 3 2 3 4 3 3 1 1 1 1 2 2 2 3 4 2 4 7 2 1 3 1 2 2 3 5 7 3 1 2 5 10 16 4 4 7 6 2 5 9 12 14 8 6 9 10 11 12 13
22 23 24 24 25 25 24 25 24 24 24 24 22 17 13 11 4 6 7 5 2 2 2 2 4 1 4 3 3 6 5 7 6 9 8 8 5 3 2 0 0 3 2 3 3 0 1 1 1 4 1 1 2 2 5 9 5 2 1 2 4 2 5 8 1 3 8 7 5 7 12 17 6 6 8 8 8 7 11 11 9 9 6 9 10 11 12 12
23 23 24 24 24 24 24 24 24 25 23 23 18 12 3 3 2 1 1 1 1 2 3 4 4 5 1 9 9 7 4 8 10 2 4 2 1 1 1 1 1 1 1 3 3 1 1 0 3 0 4 2 6 8 11 4 3 1 1 2 0 4 4 2 3 4 1 3 7 9 13 15 4 7 6 7 5 9 15 13 9 10 6 8 10 11 12 13
24 24 24 23 24 23 24 23 22 22 22 12 10 7 5 7 6 1 3 3 2 1 2 4 1 3 7 6 5 5 10 4 1 3 4 4 0 0 0 1 2 2 1 2 3 1 1 3 5 7 4 6 5 6 7 5 4 5 2 4 6 5 9 5 4 5 8 8 7 11 16 18 8 7 4 4 6 7 11 15 15 12 9 7 9 11 14 15
23 24 23 23 23 24 22 21 20 20 18 4 4 5 5 3 3 5 9 7 4 2 3 4 5 5 5 3 5 3 5 4 0 2 3 0 1 1 1 1 1 1 2 2 2 2 2 3 8 6 5 6 7 6 4 4 3 4 5 5 8 3 11 4 4 2 2 3 6 10 15 19 14 11 7 6 7 12 12 12 14 15 11 8 11 13 14 15
24 23 23 25 24 24 22 21 19 18 10 1 4 4 1 1 1 1 1 6 6 2 4 5 1 3 4 7 5 1 1 2 8 4 3 1 2 0 2 1 2 5 1 0 2 2 2 8 6 2 4 4 3 3 4 5 4 4 5 6 7 8 6 6 6 4 5 5 12 14 16 19 16 14 9 6 7 10 11 10 13 14 13 9 9 13 13 11
24 25 24 24 24 22 22 20 18 10 4 5 4 2 2 5 2 2 1 1 7 3 1 0 1 3 5 3 2 4 3 4 6 9 4 2 1 2 1 0 2 2 1 2 4 4 8 6 6 6 3 3 3 3 4 3 3 5 4 3 9 5 1 5 0 0 2 5 5 5 11 14 11 10 8 6 7 10 11 8 11 11 12 13 12 12 13 14
25 24 25 25 24 24 20 20 10 3 3 0 0 3 2 3 3 3 1 1 3 8 2 3 1 2 4 1 2 1 2 3 2 7 4 3 4 2 1 3 5 1 4 4 7 9 13 8 1 2 3 5 6 5 4 4 6 4 6 7 9 7 5 7 6 3 4 7 9 11 12 15 12 13 8 6 7 10 14 13 13 15 12 13 11 12 14 16
25 25 25 25 23 25 22 13 5 2 3 1 1 1 1 3 2 2 2 2 0 4 2 2 2 3 3 0 1 2 1 2 3 3 2 2 3 3 3 1 0 4 4 5 3 6 14 10 3 5 3 3 4 4 6 5 6 4 6 11 11 8 7 8 9 5 2 6 8 5 5 10 8 8 10 8 5 9 10 14 15 15 15 11 13 13 12 14
25 25 25 24 23 24 19 2 2 3 2 1 0 1 2 2 3 2 3 2 0 3 2 2 1 1 2 1 0 3 3 1 2 4 1 1 3 2 1 2 1 6 4 4 7 5 7 1 6 8 9 6 5 7 4 7 7 3 7 8 11 11 9 9 9 2 4 6 4 6 8 10 2 4 4 7 8 12 9 9 12 12 14 11 12 12 12 14
26 25 25 23 22 20 6 1 2 3 1 1 1 3 4 3 1 1 1 2 3 1 2 2 1 1 1 1 4 4 4 4 5 3 2 4 3 0 1 5 2 1 2 0 2 6 1 3 5 6 7 9 6 8 4 8 7 9 2 6 6 8 9 10 11 9 7 4 7 2 4 9 11 6 5 6 4 6 7 10 11 8 11 11 12 13 13 14
26 25 24 23 21 13 3 2 5 1 2 1 2 4 4 3 1 3 2 2 3 2 1 3 0 1 1 4 5 1 4 4 5 1 1 4 1 4 1 2 3 5 1 2 10 1 0 2 4 8 6 6 9 7 4 11 7 5 0 6 7 7 9 9 7 7 7 7 9 8 5 6 9 5 6 4 6 7 13 13 14 12 10 11 12 14 14 15
26 25 24 22 21 10 1 3 2 1 2 1 3 2 3 2 3 4 2 1 0 1 2 0 3 1 2 4 3 1 2 0 1 3 1 2 4 1 1 2 1 4 4 4 9 2 2 0 1 0 2 6 4 3 7 8 6 7 9 3 4 4 5 7 7 7 7 4 9 11 8 7 13 2 3 4 10 13 12 15 17 15 12 12 11 13 13 12
27 25 25 21 12 1 1 2 4 5 1 3 2 1 2 3 2 4 6 2 1 3 0 3 3 5 3 10 5 2 2 2 2 3 2 0 2 2 1 1 0 1 3 2 7 10 8 8 9 6 4 3 4 6 6 7 10 2 3 3 5 3 4 3 5 5 3 4 10 13 13 9 11 4 6 6 6 9 10 12 14 13 11 10 9 11 10 10
27 26 23 17 3 3 2 3 6 2 2 2 2 3 2 3 3 5 2 3 0 4 3 1 4 5 7 7 9 4 2 1 4 2 3 3 2 3 1 2 2 1 1 3 6 6 5 6 5 4 9 4 4 5 3 5 4 2 1 0 5 8 2 1 2 2 4 5 9 12 12 11 12 4 6 7 9 7 9 12 16 16 11 8 6 6 9 10
28 26 22 8 4 2 2 3 0 0 2 2 3 3 2 2 6 5 2 3 1 5 2 5 3 2 10 5 3 4 8 5 1 2 4 4 7 3 1 1 0 3 4 2 6 4 5 10 9 4 4 9 3 4 4 3 2 2 2 0 1 3 3 3 1 3 4 8 4 7 10 7 12 11 7 9 9 11 10 11 14 15 14 10 6 7 8 9
28 24 17 3 5 1 5 2 1 2 3 3 3 2 4 6 2 3 3 3 2 1 6 1 5 7 8 6 5 3 2 1 2 1 2 2 2 4 3 4 4 5 3 1 3 6 8 4 3 7 3 6 6 8 4 3 3 5 4 3 3 4 3 4 5 1 3 3 5 5 6 10 4 7 11 15 19 19 17 15 15 17 16 12 8 7 8 8
24 18 5 1 3 5 3 2 2 3 4 2 3 3 7 8 1 2 1 2 4 1 3 1 8 8 1 1 3 4 7 2 3 3 2 3 2 4 3 2 5 1 2 2 1 1 6 9 1 4 2 3 9 12 9 7 5 8 4 8 7 3 4 4 5 6 6 6 4 6 4 4 6 6 11 16 19 18 16 16 15 16 15 11 11 8 7 9
22 7 1 2 1 5 8 6 3 3 1 4 9 6 6 1 2 1 3 2 3 3 4 2 5 3 5 2 2 1 2 4 2 10 3 2 4 2 3 3 2 4 1 1 3 1 6 7 7 5 2 2 6 3 3 4 7 5 3 2 5 11 4 8 3 2 2 2 5 3 4 3 7 5 10 13 17 16 14 14 11 12 9 7 8 9 9 11
10 5 1 1 2 2 1 2 1 1 3 6 8 6 2 2 1 1 1 3 1 1 7 8 2 2 3 3 1 1 2 1 5 5 3 1 5 4 3 3 5 9 7 5 3 2 1 6 4 4 5 5 8 4 4 8 5 4 7 9 9 4 3 0 2 1 3 2 8 1 7 9 8 12 15 12 11 13 14 12 8 10 9 2 4 6 7 9
7 6 3 3 2 4 3 1 1 3 5 7 7 1 1 2 3 3 3 3 4 2 2 4 4 1 4 3 2 2 1 2 2 3 6 3 8 4 2 4 4 5 8 5 3 4 3 11 1 5 12 3 6 6 7 6 5 3 3 7 2 1 4 3 5 2 1 3 5 1 6 7 6 7 8 10 11 13 13 8 6 6 2 4 5 5 7 9
5 4 2 2 3 5 1 0 3 6 4 6 4 1 0 1 1 3 1 4 2 2 1 2 4 1 2 1 4 4 3 3 3 3 5 0 4 2 1 2 3 8 10 3 2 2 1 9 2 7 5 6 2 3 3 6 5 6 4 2 5 1 3 1 2 4 3 4 3 4 7 8 8 8 4 4 0 3 3 2 2 3 1 3 5 7 7 7
1 1 1 3 5 3 3 3 6 5 4 8 2 3 1 3 2 2 4 2 1 1 0 2 1 1 1 2 4 3 2 5 7 2 2 1 2 2 3 3 2 5 3 5 4 1 1 3 4 1 2 4 3 2 3 3 2 5 1 2 3 3 2 4 4 1 2 3 2 6 3 7 7 7 6 2 3 2 1 3 3 5 5 5 6 7 7 7
4 2 1 2 5 4 3 4 5 7 6 4 0 2 1 1 4 6 3 0 2 1 2 1 1 2 1 6 1 5 2 2 5 4 4 3 6 6 4 3 1 4 5 10 5 3 1 2 8 2 3 4 6 2 5 6 5 2 2 2 2 1 2 3 0 4 5 3 2 2 5 8 8 4 7 2 3 4 2 3 4 5 6 5 5 7 8 9
1 2 1 3 6 4 5 9 8 5 3 1 1 2 1 1 4 3 5 1 1 1 1 2 1 2 2 3 6 1 2 3 2 2 4 4 5 4 1 3 2 5 1 4 5 2 1 4 7 8 6 5 8 4 4 5 4 5 6 5 6 5 3 5 6 1 2 3 3 2 9 7 8 5 7 5 10 10 5 5 5 5 6 5 6 7 9 9
3 2 2 5 6 4 4 6 3 1 3 3 3 1 3 4 2 4 4 1 1 1 3 0 2 2 1 3 4 2 3 5 3 2 4 6 4 7 4 6 2 5 3 3 3 5 3 1 4 8 8 9 12 9 6 7 2 3 4 4 4 2 4 4 6 4 1 3 3 3 5 9 6 3 7 9 10 10 10 5 6 5 6 7 8 7 7 9
4 2 4 4 6 3 3 3 0 3 2 3 4 1 2 2 3 2 2 2 4 1 2 0 2 1 2 2 1 2 2 5 4 4 4 2 9 13 8 2 3 2 3 1 2 3 5 3 4 9 8 12 11 7 8 4 1 3 3 4 4 5 3 3 2 4 3 1 2 3 4 8 5 4 8 12 14 12 5 5 8 8 6 6 7 6 6 7
1 2 4 3 4 4 8 3 4 6 2 5 0 3 3 2 2 5 1 3 1 3 1 1 4 1 3 1 1 3 1 3 4 7 6 3 7 5 5 3 2 4 6 5 5 6 1 3 4 5 5 4 2 4 5 3 1 3 3 5 8 6 4 3 1 1 4 7 7 3 10 9 5 7 10 16 16 19 15 6 6 10 7 6 8 7 5 6
2 1 2 6 6 5 3 2 1 2 2 3 3 6 6 2 2 4 3 3 0 1 1 1 1 1 2 1 3 5 4 8 6 4 7 6 8 4 8 8 9 9 9 8 6 7 5 3 3 5 5 5 4 1 0 0 6 3 4 4 6 12 9 3 4 3 4 3 6 4 7 11 11 11 14 10 13 16 13 8 7 5 7 9 9 8 6 5
3 2 4 4 6 5 3 1 4 1 1 3 3 2 2 5 3 7 1 3 2 3 2 2 1 1 1 7 7 5 5 5 7 5 3 7 6 4 2 4 7 10 14 16 7 9 3 2 5 7 7 6 7 5 3 2 1 3 4 5 6 7 11 8 2 3 8 4 4 6 9 13 16 16 13 10 17 16 14 14 14 13 7 7 7 7 6 6
0 3 2 5 5 4 3 3 3 2 1 1 0 1 4 4 5 4 4 2 2 4 2 1 0 6 5 8 7 11 5 5 7 11 12 13 6 8 11 10 18 16 19 11 15 4 1 6 8 10 13 12 10 12 10 3 6 5 6 6 5 6 5 7 8 10 3 2 9 8 10 9 16 15 12 14 19 16 11 10 12 12 10 10 10 8 9 7
2 0 1 1 0 4 5 3 6 4 2 0 2 1 3 4 6 6 5 1 5 4 3 2 2 2 4 3 7 5 8 11 9 5 6 7 10 11 17 5 7 5 5 4 8 3 2 5 2 7 12 13 12 14 12 8 8 8 8 6 6 4 4 10 11 11 4 6 12 9 4 7 13 12 12 16 17 15 13 12 12 9 10 11 8 10 11 10
3 0 0 2 0 2 2 3 5 3 7 2 0 4 4 4 5 2 2 5 2 3 3 3 6 9 10 8 3 5 6 9 6 6 6 11 13 11 10 11 4 5 4 4 4 1 1 7 6 7 13 11 11 13 14 11 6 8 9 10 11 8 10 12 13 10 12 13 12 10 7 13 15 14 15 17 15 14 11 9 9 8 11 8 6 8 9 10
3 2 3 3 1 3 2 2 1 3 1 4 2 2 1 3 4 6 3 2 3 3 1 3 9 10 12 11 6 5 8 8 10 14 16 9 20 5 7 5 9 2 3 3 2 5 4 6 3 3 4 13 8 10 10 11 10 10 9 8 7 9 9 10 8 9 9 10 13 15 14 17 15 15 13 11 10 9 8 10 12 10 10 7 5 8 10 9
1 0 0 3 4 4 1 1 2 1 1 3 3 3 4 3 7 7 9 4 6 3 4 9 10 12 9 9 11 11 10 9 13 18 19 16 13 13 1 7 0 10 7 5 3 2 6 5 3 1 4 10 2 2 8 9 9 9 6 6 6 4 5 6 8 8 6 12 13 10 10 13 16 11 7 9 9 7 8 12 12 9 7 4 5 8 9 10
1 1 0 1 1 2 2 1 2 1 1 0 1 2 2 5 5 8 8 3 2 5 4 4 10 7 8 10 13 12 13 15 20 21 18 15 14 17 13 16 14 7 5 4 3 4 4 3 4 2 6 8 4 3 2 1 2 2 3 3 3 4 4 4 5 4 8 10 9 9 13 7 7 8 10 15 13 10 10 11 11 10 6 4 5 7 9 9
Wind_Direction
352 350 349 348 346 346 345 344 343 343 342 342 340 338 336 336 335 333 332 333 333 333 333 333 332 331 332 332 332 335 336 340 322 330 341 243 211 243 275 259 322 344 343 29 10 32 349 6 3 339 31 75 273 153 246 83 162 91 202 210 236 223 214 175 200 178 170 172 190 178 189 192 233 219 222 144 209 210 206 210 308 36 14 37 112 124 125 132
349 348 347 346 345 345 344 341 341 341 341 339 338 337 335 334 334 332 331 330 331 330 331 333 332 332 333 332 332 335 340 330 310 306 242 236 209 270 260 303 345 344 356 36 33 32 37 351 333 358 36 115 318 179 70 231 124 186 199 179 237 204 236 152 191 198 158 206 166 200 197 195 223 206 202 228 224 206 242 188 63 62 30 61 89 126 133 140
348 348 347 346 344 343 341 342 342 341 340 339 337 335 334 332 332 331 331 330 329 330 329 331 332 332 333 332 331 337 343 324 304 330 338 253 277 237 259 26 26 25 64 48 192 88 66 273 286 1 2 119 356 184 58 242 145 245 172 230 232 79 242 248 348 222 213 150 199 202 221 206 223 196 118 223 225 213 222 173 42 157 178 149 136 139 142 147
347 345 345 344 341 340 343 343 341 339 338 337 336 335 333 332 330 329 328 328 329 328 329 331 331 333 331 330 332 335 12 311 11 276 281 322 16 342 14 35 41 54 85 94 178 177 196 72 43 67 15 65 294 31 134 245 140 284 164 226 236 331 21 290 23 0 335 343 281 212 225 220 235 216 174 184 212 215 215 192 166 194 187 167 163 152 153 157
345 344 342 341 340 340 340 340 338 337 337 336 336 334 333 330 330 328 327 326 326 327 326 329 331 331 332 332 329 9 5 40 256 300 270 308 356 14 14 8 45 59 97 156 93 35 75 69 53 42 75 237 339 2 243 291 213 116 215 70 266 3 1 282 342 353 6 353 13 330 265 249 70 164 223 199 207 217 201 189 185 181 179 157 166 172 168 175
344 343 341 341 340 339 338 338 337 337 337 336 333 333 332 332 330 329 327 326 326 324 324 326 328 332 330 336 329 1 41 357 293 288 311 345 21 15 7 17 14 44 48 42 63 15 37 347 54 31 356 57 245 173 271 242 23 249 282 285 27 115 334 301 319 323 26 348 343 328 289 342 296 266 214 214 226 231 180 182 192 180 176 177 166 153 170 181
343 341 340 340 339 338 337 336 336 336 336 334 331 332 332 331 329 327 326 326 324 324 323 326 328 332 336 336 316 75 90 269 346 274 354 39 31 30 18 19 21 28 34 40 23 46 17 26 69 70 96 4 298 199 280 336 344 200 252 319 312 286 263 273 300 330 10 9 309 265 300 285 296 295 316 265 247 246 239 192 188 184 173 144 140 168 178 191
344 342 342 340 338 337 336 336 335 335 333 333 331 331 330 328 327 323 321 321 320 318 320 324 328 332 347 349 14 338 56 251 271 306 359 55 28 19 20 49 39 36 47 65 49 31 17 48 29 313 70 93 242 54 308 345 299 241 283 321 301 5 298 316 337 332 325 318 260 331 311 286 320 277 327 286 278 272 253 225 212 186 160 157 161 173 183 188
343 342 341 340 338 336 336 335 332 331 333 331 328 327 324 323 320 317 313 311 312 310 316 321 328 332 17 82 91 345 318 237 261 357 29 14 351 359 12 338 30 61 68 65 46 103 70 292 36 75 281 5 287 343 331 43 320 34 301 337 319 306 311 302 324 284 297 307 57 340 297 304 296 311 270 253 257 263 268 274 171 168 172 176 172 174 180 189
343 341 341 343 338 336 338 335 334 332 331 328 327 322 320 317 314 311 308 306 304 305 303 313 318 3 41 37 24 18 266 17 19 11 10 2 343 350 1 109 62 63 15 319 33 63 51 239 122 257 183 255 356 265 326 95 234 337 301 307 301 274 283 276 239 284 305 277 305 278 293 310 304 31 271 251 230 251 261 249 161 159 186 190 191 188 183 185
343 342 342 342 338 338 337 335 333 332 330 328 324 322 317 313 310 309 306 303 301 298 292 301 306 42 58 67 80 276 271 23 4 10 354 344 341 338 295 315 147 61 138 304 259 200 209 189 185 301 82 233 11 297 90 238 323 330 312 309 305 302 258 271 304 279 311 288 211 159 275 274 270 233 251 249 247 24 306 275 217 180 185 197 213 207 203 198
344 343 343 340 338 339 336 334 333 331 329 326 322 318 316 315 312 311 308 305 300 286 282 302 312 123 98 104 175 222 327 279 327 325 316 317 298 238 250 257 159 194 111 286 281 244 171 182 131 62 194 14 327 307 306 316 337 309 4 331 306 315 303 208 227 235 180 251 221 26 321 277 255 246 252 266 355 291 283 285 215 205 191 194 205 217 228 227
345 344 343 341 338 338 336 334 333 332 329 326 321 316 315 316 312 310 313 309 294 244 218 230 207 84 92 329 227 241 295 298 328 323 319 322 269 267 254 270 251 206 197 224 263 226 188 137 107 65 251 64 245 195 288 5 308 328 360 298 328 341 318 257 199 210 194 228 142 83 254 243 246 249 257 288 305 307 296 275 215 209 208 198 195 201 211 218
345 343 342 341 339 338 336 334 333 332 330 325 321 318 318 315 315 319 318 310 169 165 191 174 86 84 89 240 280 250 258 275 329 337 318 0 25 303 332 290 232 238 206 221 258 247 156 141 130 200 151 124 261 291 354 334 15 347 268 27 261 333 271 345 166 222 197 165 172 145 246 255 250 259 269 19 331 250 268 265 236 205 207 206 204 204 206 209
343 344 343 341 340 338 336 335 334 333 330 327 322 319 320 321 324 339 35 118 132 154 156 84 76 91 21 277 255 273 257 129 349 328 258 19 358 328 338 326 277 244 224 210 241 72 126 122 97 62 250 264 41 40 339 1 347 325 12 282 8 169 279 343 320 143 180 296 176 153 245 251 243 259 277 309 297 257 253 264 254 191 211 210 202 205 210 212
343 342 342 341 340 338 337 336 335 334 331 326 323 320 322 325 351 54 104 120 130 131 107 80 39 114 204 320 276 319 35 24 322 309 254 178 159 254 240 262 254 328 17 265 257 276 75 130 166 191 160 14 78 72 360 10 340 347 167 275 271 335 284 348 313 281 266 252 287 191 256 274 247 252 265 253 256 263 263 267 272 223 200 207 208 208 209 211
342 341 340 341 340 339 337 337 336 334 330 325 323 321 320 329 18 72 102 106 96 80 88 137 129 96 78 241 250 26 330 285 302 325 317 185 206 221 353 13 13 350 351 328 12 88 16 97 282 58 8 138 163 99 28 325 279 309 12 217 179 233 312 283 311 325 32 130 281 261 246 254 262 323 304 290 201 282 275 265 265 252 202 209 204 209 210 209
341 340 340 340 339 339 337 336 334 333 331 325 324 315 306 309 91 79 64 58 76 52 64 69 112 84 287 4 23 303 306 293 320 304 294 277 194 193 178 257 342 33 39 360 357 240 286 288 42 207 30 59 94 101 128 242 205 119 177 268 309 263 231 244 336 263 345 316 284 276 269 269 281 285 277 275 295 280 268 264 269 271 219 211 207 203 208 211
342 341 339 339 338 338 337 336 335 334 331 326 321 322 294 75 50 102 86 221 38 355 20 334 28 61 238 289 309 284 283 270 299 282 297 352 52 152 94 114 87 59 345 37 281 55 339 296 25 50 231 139 193 183 202 188 79 132 156 193 232 309 285 246 239 282 266 271 296 286 268 274 299 285 287 300 273 264 271 276 268 268 238 213 210 205 204 207
341 341 339 337 338 337 337 336 335 332 334 335 348 356 7 12 5 338 331 31 94 183 219 263 113 294 315 296 276 272 273 300 278 280 274 291 141 18 316 104 22 53 107 208 299 341 137 201 225 223 202 206 223 205 219 248 280 288 312 286 253 241 272 253 263 276 307 311 264 255 271 279 275 257 272 294 315 294 274 270 267 260 251 208 216 213 207 206
340 339 339 338 337 337 336 336 336 332 334 353 333 39 50 339 28 335 336 291 252 240 235 254 201 203 226 275 290 350 3 318 194 287 273 222 98 77 284 61 34 294 241 191 182 280 52 299 247 229 207 192 207 209 230 270 288 256 262 267 274 228 267 259 261 243 312 343 279 279 287 281 279 278 270 270 278 276 270 271 271 264 250 225 208 217 214 210
340 340 339 339 336 337 336 335 334 333 328 54 42 65 119 34 277 226 63 326 318 238 232 252 234 274 284 246 245 217 103 303 321 329 294 121 337 61 296 148 160 218 288 91 6 10 271 241 244 180 204 196 192 186 193 197 231 241 231 257 279 262 263 274 232 221 233 227 265 272 273 275 273 272 268 249 248 261 261 254 261 263 257 235 218 214 218 214
340 340 339 338 338 335 335 333 331 338 9 26 42 54 43 310 4 273 147 252 275 276 296 312 286 276 296 265 253 135 10 319 318 323 315 44 355 206 161 131 253 238 65 106 214 246 278 262 257 213 154 177 229 204 222 234 231 234 250 257 253 269 304 304 249 249 247 204 263 265 274 276 278 265 252 236 225 252 260 255 261 262 259 247 223 210 213 214
340 340 340 340 337 336 330 332 331 43 26 66 115 74 262 306 352 32 67 191 291 310 215 239 213 234 265 7 222 129 349 289 76 300 307 32 347 241 262 212 262 171 233 194 203 212 234 234 154 115 192 186 230 232 203 219 258 218 212 234 255 257 225 222 270 269 273 265 257 280 283 281 272 266 260 248 234 250 266 270 263 264 253 252 245 222 210 211
338 339 340 339 338 335 329 328 45 342 288 97 241 249 283 320 30 135 93 331 357 287 198 304 159 241 235 286 47 309 225 329 222 262 278 45 329 7 273 236 111 244 236 219 256 272 265 251 231 259 225 195 214 261 228 186 252 264 221 222 235 241 250 251 261 286 315 289 256 242 293 268 273 256 236 233 236 248 250 254 254 254 260 245 243 232 219 220
338 338 339 339 338 337 323 359 301 305 6 97 9 6 315 15 13 143 99 72 330 278 2 307 140 326 154 299 63 283 84 308 227 256 164 297 229 235 355 301 181 282 255 245 228 232 259 106 178 226 239 233 203 232 207 159 227 249 254 198 226 237 235 244 261 245 269 242 268 153 222 278 41 325 243 226 212 241 257 259 261 253 251 240 235 229 220 215
337 337 337 337 338 341 12 324 290 318 39 309 307 353 335 337 345 90 47 7 18 266 289 243 63 307 210 273 347 347 58 288 310 14 28 344 12 133 205 247 318 346 19 44 333 265 215 220 190 228 240 242 235 245 208 164 198 243 194 154 212 225 227 234 233 216 234 254 273 272 210 271 283 251 259 251 251 259 259 266 265 253 260 246 229 228 219 213
334 335 334 334 335 338 201 310 355 51 210 240 25 348 319 337 83 54 83 65 336 347 353 315 223 213 70 324 14 70 237 307 5 334 54 335 69 347 115 256 208 248 228 94 247 331 170 313 226 241 243 240 235 223 174 188 190 242 142 190 225 219 232 239 232 229 231 248 268 271 236 260 257 249 225 249 268 261 270 272 270 265 256 255 247 235 223 214
333 332 331 330 330 327 130 175 154 247 227 273 343 324 308 69 87 93 118 112 256 287 178 63 266 30 321 346 358 317 334 56 154 258 317 60 52 213 335 304 14 340 302 207 254 283 304 293 125 210 210 241 238 227 189 176 217 260 256 258 224 234 236 232 233 231 240 201 254 252 233 248 270 219 217 236 227 251 258 266 267 265 258 256 245 246 238 223
332 329 327 328 327 74 37 154 215 240 323 313 318 264 68 59 43 33 26 332 8 308 329 269 345 303 21 351 319 343 6 311 207 316 3 187 314 28 215 135 250 306 300 296 256 253 256 279 280 273 250 222 239 238 202 196 210 244 29 305 292 270 238 235 211 215 234 234 243 242 244 220 273 191 215 204 221 220 239 258 263 265 266 263 249 240 234 228
331 326 324 325 288 240 136 302 256 249 257 278 312 56 86 39 107 99 94 233 43 263 347 11 321 17 344 17 332 299 235 312 320 26 326 355 332 22 352 22 8 24 335 307 274 288 239 230 249 235 208 228 204 255 250 207 210 177 205 74 345 312 329 282 303 112 192 246 233 237 236 227 249 225 232 244 258 245 228 244 258 262 258 254 256 242 239 223
330 326 323 320 202 167 183 258 196 227 293 327 48 46 93 327 8 81 221 316 18 295 337 295 299 354 331 343 180 321 329 336 336 10 336 333 309 4 311 170 114 352 315 295 283 335 271 225 219 270 178 185 183 235 248 214 236 210 258 342 133 269 9 329 198 268 206 235 235 226 225 256 238 250 253 272 262 254 237 238 253 262 265 261 251 239 234 225
330 329 326 319 188 172 245 252 6 327 344 38 66 55 57 95 32 281 303 350 252 121 303 118 282 337 316 335 318 307 225 298 314 322 314 299 23 273 229 188 198 150 253 272 305 350 280 295 211 226 229 206 203 232 223 260 207 187 192 160 165 236 228 240 270 250 300 285 269 250 244 244 274 267 207 231 241 239 239 237 240 249 255 258 251 232 232 230
329 331 343 259 203 222 255 263 280 346 351 54 84 33 52 62 275 197 270 231 261 315 309 350 312 323 358 324 293 349 347 274 30 299 355 277 27 313 326 293 168 230 196 337 311 283 340 342 321 130 232 188 202 220 218 201 172 202 180 175 188 185 160 236 215 238 239 237 284 288 14 218 184 233 189 217 236 237 234 234 233 240 246 246 247 242 224 229
326 329 289 318 304 255 246 263 269 266 38 28 49 78 91 239 208 236 276 298 290 298 277 320 312 0 312 2 286 309 130 310 10 339 357 6 303 220 266 278 241 123 128 45 261 61 216 238 254 217 199 160 204 220 167 187 237 215 154 116 167 226 145 238 191 216 282 321 334 285 213 224 236 233 227 218 221 234 233 237 239 250 255 246 250 242 228 223
339 340 346 326 339 285 243 244 152 65 35 51 73 48 83 174 281 145 252 198 294 321 304 333 99 15 279 309 305 31 251 242 320 11 301 262 252 251 213 219 179 186 159 175 193 257 280 263 254 290 279 228 220 196 216 153 195 223 168 224 218 147 146 339 334 22 73 39 256 215 301 282 282 280 268 250 250 232 224 228 229 242 247 243 245 254 246 236
1 335 37 322 335 319 307 138 90 59 57 84 88 73 204 291 193 166 270 308 274 286 38 20 305 105 317 305 286 328 311 154 302 22 308 289 306 197 227 259 168 186 213 135 282 194 213 280 237 294 280 276 232 203 213 204 166 96 193 231 62 95 127 137 226 336 43 233 266 111 245 277 260 258 264 257 212 227 227 226 229 249 257 227 244 247 250 246
338 340 270 348 312 312 338 34 65 35 78 76 60 121 326 5 174 188 253 335 348 25 85 125 270 97 280 335 303 345 334 27 269 8 290 260 267 187 205 264 201 193 214 231 259 291 114 299 300 223 241 274 325 131 283 250 231 207 189 196 141 283 231 304 106 256 227 250 288 266 259 249 221 248 324 324 348 272 281 277 299 304 327 268 262 261 260 258
294 29 28 314 327 352 335 19 54 57 61 60 350 37 270 240 259 221 248 229 160 127 15 234 189 292 158 293 258 307 325 343 321 301 0 255 322 186 222 175 306 220 214 177 229 208 254 254 285 209 166 304 334 117 234 265 255 228 283 296 168 119 187 138 196 130 95 268 34 288 335 249 213 229 187 248 54 336 280 319 284 255 241 248 264 272 282 290
23 38 315 290 321 350 3 49 45 37 61 74 262 222 216 278 278 277 289 178 290 125 249 264 223 291 296 237 263 288 279 275 309 298 175 248 251 267 256 110 295 304 195 197 182 141 268 154 275 244 273 348 298 198 221 182 163 150 132 231 172 207 228 103 33 152 162 175 186 246 299 262 260 212 202 201 288 292 268 272 268 243 240 243 255 263 273 274
346 102 270 298 332 333 30 46 45 31 76 274 191 229 296 267 319 291 325 197 237 245 207 204 170 192 237 342 313 184 279 310 277 252 207 274 198 317 47 78 5 304 197 202 200 166 189 201 247 293 311 250 233 214 188 171 166 148 164 206 173 181 174 201 250 145 142 128 227 200 257 276 278 309 271 276 301 286 285 264 273 273 256 251 245 245 246 266
51 29 298 335 329 33 54 45 11 91 91 84 342 307 308 328 328 284 317 17 85 283 7 294 252 236 265 236 232 312 297 281 241 222 234 215 250 191 240 148 230 262 189 223 204 172 185 215 255 272 255 261 264 229 190 182 134 171 148 238 193 208 157 160 212 235 110 216 150 216 280 268 247 228 290 290 276 273 284 268 272 274 259 251 249 241 248 250
48 237 272 323 345 57 57 77 264 31 2 235 293 299 271 286 218 266 331 328 350 133 355 354 229 348 267 203 303 282 295 283 245 229 218 238 258 239 240 128 239 286 182 301 50 166 137 252 255 254 269 270 277 276 199 196 149 318 269 226 231 228 224 229 183 190 183 182 231 252 233 260 281 177 251 276 289 293 282 271 279 280 271 274 276 273 263 268
199 257 322 308 17 73 74 63 345 332 307 312 12 260 247 239 346 330 333 303 10 336 342 288 342 196 272 322 289 272 263 324 230 234 284 222 271 217 167 178 198 236 180 213 189 165 100 206 203 291 300 313 342 20 50 7 112 210 217 226 206 225 267 266 311 108 255 223 205 185 264 273 277 307 302 287 304 308 303 274 259 288 289 282 287 284 270 272
277 251 247 301 353 54 100 179 131 239 312 303 325 332 341 343 270 275 253 284 327 272 357 290 206 276 298 315 259 261 254 221 292 247 256 262 265 283 269 224 220 231 226 221 198 135 219 221 159 250 266 313 320 328 97 249 223 245 245 213 197 195 212 204 244 198 224 268 210 221 262 264 271 277 276 289 291 284 282 276 269 241 271 293 299 290 290 284
17 14 310 345 8 21 62 92 90 82 294 327 3 283 349 326 321 317 136 281 161 327 219 254 12 97 264 341 317 316 300 221 210 281 306 285 291 291 167 272 241 248 260 250 196 144 239 234 214 229 236 223 250 244 238 147 98 230 268 222 215 206 206 198 135 156 216 232 230 231 233 275 283 282 287 305 289 286 297 309 313 315 299 264 256 282 293 294
173 64 339 337 344 39 90 49 67 63 321 237 316 352 1 333 301 306 328 312 345 2 294 110 273 14 322 348 326 316 271 288 242 250 268 276 266 269 296 287 285 276 279 281 158 140 139 279 214 224 242 237 241 260 255 235 256 254 262 275 250 221 198 196 198 228 175 242 272 239 226 244 266 275 283 287 276 284 285 290 302 305 301 299 305 309 303 295
50 284 98 199 63 285 10 326 16 344 297 178 245 21 4 350 357 350 311 286 336 349 24 329 22 342 299 288 303 290 306 301 285 272 292 261 291 315 317 320 280 321 35 89 143 160 203 257 244 188 252 244 227 247 255 242 232 237 237 243 264 233 196 203 226 225 148 196 234 249 194 236 261 265 267 265 270 277 286 292 291 286 287 293 308 319 319 326
114 243 173 347 98 263 165 285 334 323 312 280 228 28 350 7 339 337 292 308 331 288 67 324 317 324 320 323 328 276 297 330 309 294 293 308 305 324 304 330 325 28 69 110 164 317 346 249 258 213 270 267 241 226 247 241 236 234 237 237 235 225 219 215 226 219 205 231 241 266 259 250 254 262 261 259 271 282 287 289 291 293 278 279 300 310 318 329
16 20 328 349 267 287 288 339 314 351 3 334 35 328 319 304 308 316 295 254 312 284 255 328 308 326 321 314 302 258 271 264 261 292 301 315 308 300 281 233 270 359 61 120 171 203 190 261 189 234 259 288 275 228 220 227 228 235 240 234 237 235 237 229 230 233 217 247 255 256 259 266 271 255 261 284 279 284 304 290 277 273 281 289 306 306 311 319
349 50 336 326 324 271 267 352 352 353 22 337 55 321 331 335 331 332 294 221 214 256 351 318 314 316 309 301 294 273 266 267 277 270 274 279 266 280 312 284 262 312 325 306 180 254 207 273 324 258 306 292 330 193 225 233 223 233 266 278 260 216 224 227 213 216 195 232 241 248 259 258 262 298 340 294 295 301 286 286 286 283 277 280 294 299 302 301
291 276 156 119 340 333 24 296 328 59 342 261 2 332 338 293 291 319 325 276 204 224 255 302 308 305 292 301 292 286 298 299 290 284 281 271 253 266 251 254 269 257 308 278 284 257 217 284 300 313 297 268 268 317 314 158 114 27 299 260 274 261 250 279 275 261 230 228 232 228 240 261 310 323 321 303 296 288 287 287 286 285 277 264 269 277 279 276